AFR36D LFPG-LFRS

Flight info

Callsign AFR36D
Flight time 1h 2m
Altitude 27000
Route LGL UT176 ROLEN UZ15 ARDOD A5 VALAX
Aircraft A320/M-SDE3FGHIRWY/LB1

Departure

Time 2026-05-08 20:46
Airport Charles de Gaulle International Airport (LFPG)

Arrival

Time 2026-05-08 21:48
Airport Nantes Atlantique Airport (LFRS)
Time Latitude Longitude Altitude Speed Heading
2026-05-08 20:16 49.01253 2.53863 359 ft 0 kts 89°
2026-05-08 20:31 49.01253 2.53851 362 ft 2 kts 89°
2026-05-08 20:31 49.01252 2.53825 357 ft 2 kts 89°
2026-05-08 20:31 49.01252 2.53800 360 ft 2 kts 89°
2026-05-08 20:32 49.01251 2.53774 360 ft 2 kts 89°
2026-05-08 20:32 49.01251 2.53748 360 ft 2 kts 85°
2026-05-08 20:32 49.01252 2.53722 360 ft 2 kts 97°
2026-05-08 20:32 49.01255 2.53697 361 ft 2 kts 123°
2026-05-08 20:33 49.01265 2.53677 362 ft 2 kts 154°
2026-05-08 20:33 49.01268 2.53675 362 ft 0 kts 154°
2026-05-08 20:35 49.01237 2.53698 360 ft 6 kts 149°
2026-05-08 20:35 49.01209 2.53734 359 ft 5 kts 134°
2026-05-08 20:36 49.01192 2.53773 356 ft 4 kts 120°
2026-05-08 20:36 49.01175 2.53851 356 ft 10 kts 94°
2026-05-08 20:36 49.01179 2.53957 357 ft 10 kts 85°
2026-05-08 20:36 49.01184 2.54057 357 ft 9 kts 85°
2026-05-08 20:37 49.01189 2.54197 342 ft 18 kts 87°
2026-05-08 20:37 49.01200 2.54358 353 ft 8 kts 83°
2026-05-08 20:37 49.01204 2.54412 356 ft 4 kts 83°
2026-05-08 20:37 49.01209 2.54492 356 ft 9 kts 87°
2026-05-08 20:38 49.01212 2.54582 363 ft 9 kts 86°
2026-05-08 20:38 49.01219 2.54707 359 ft 15 kts 85°
2026-05-08 20:38 49.01228 2.54876 359 ft 16 kts 85°
2026-05-08 20:38 49.01191 2.55009 357 ft 14 kts 161°
2026-05-08 20:39 49.01104 2.55044 362 ft 12 kts 162°
2026-05-08 20:39 49.01025 2.55078 361 ft 11 kts 167°
2026-05-08 20:39 49.00958 2.55106 356 ft 9 kts 164°
2026-05-08 20:39 49.00900 2.55131 356 ft 8 kts 164°
2026-05-08 20:40 49.00838 2.55159 357 ft 14 kts 164°
2026-05-08 20:40 49.00720 2.55210 357 ft 19 kts 164°
2026-05-08 20:40 49.00601 2.55262 357 ft 13 kts 164°
2026-05-08 20:40 49.00518 2.55299 358 ft 12 kts 164°
2026-05-08 20:41 49.00444 2.55331 360 ft 11 kts 164°
2026-05-08 20:41 49.00338 2.55377 358 ft 19 kts 164°
2026-05-08 20:41 49.00204 2.55435 358 ft 21 kts 164°
2026-05-08 20:41 49.00073 2.55492 363 ft 17 kts 164°
2026-05-08 20:42 48.99967 2.55537 357 ft 15 kts 164°
2026-05-08 20:42 48.99881 2.55606 364 ft 13 kts 139°
2026-05-08 20:42 48.99841 2.55703 357 ft 9 kts 110°
2026-05-08 20:42 48.99825 2.55784 358 ft 7 kts 106°
2026-05-08 20:43 48.99812 2.55855 359 ft 9 kts 105°
2026-05-08 20:43 48.99796 2.55970 360 ft 11 kts 103°
2026-05-08 20:43 48.99769 2.56024 359 ft 4 kts 156°
2026-05-08 20:43 48.99757 2.56027 358 ft 6 kts 170°
2026-05-08 20:44 48.99668 2.56037 360 ft 16 kts 175°
2026-05-08 20:44 48.99616 2.56128 356 ft 11 kts 90°
2026-05-08 20:44 48.99617 2.56147 356 ft 0 kts 85°
2026-05-08 20:45 48.99629 2.56382 363 ft 60 kts 85°
2026-05-08 20:45 48.99660 2.56960 356 ft 104 kts 85°
2026-05-08 20:45 48.99768 2.58886 423 ft 163 kts 84°
2026-05-08 20:45 48.99843 2.60647 975 ft 168 kts 85°
2026-05-08 20:46 48.99934 2.62416 1778 ft 166 kts 85°
2026-05-08 20:46 49.00030 2.64184 2391 ft 174 kts 85°
2026-05-08 20:46 49.00135 2.66118 2701 ft 193 kts 85°
2026-05-08 20:46 49.00209 2.67498 3018 ft 199 kts 85°
2026-05-08 20:47 49.00320 2.69586 3345 ft 217 kts 86°
2026-05-08 20:47 49.00450 2.72011 3759 ft 242 kts 86°
2026-05-08 20:47 49.00542 2.73752 4116 ft 254 kts 86°
2026-05-08 20:47 49.00685 2.76481 4933 ft 262 kts 86°
2026-05-08 20:48 49.00629 2.79276 5760 ft 268 kts 99°
2026-05-08 20:48 49.00352 2.82118 6595 ft 275 kts 100°
2026-05-08 20:48 49.00037 2.85020 7416 ft 280 kts 101°
2026-05-08 20:48 48.99580 2.87919 8223 ft 284 kts 115°
2026-05-08 20:49 48.98469 2.90400 9029 ft 286 kts 139°
2026-05-08 20:49 48.96784 2.91966 9857 ft 286 kts 165°
2026-05-08 20:49 48.94830 2.92333 10619 ft 285 kts 188°
2026-05-08 20:49 48.92914 2.91471 11096 ft 298 kts 211°
2026-05-08 20:50 48.91350 2.89313 11350 ft 318 kts 237°
2026-05-08 20:50 48.90557 2.86126 11633 ft 337 kts 263°
2026-05-08 20:50 48.90397 2.82532 12228 ft 345 kts 266°
2026-05-08 20:50 48.90263 2.78861 12937 ft 349 kts 266°
2026-05-08 20:51 48.90125 2.75154 13636 ft 354 kts 266°
2026-05-08 20:51 48.89982 2.71399 14307 ft 358 kts 266°
2026-05-08 20:51 48.89833 2.67606 14981 ft 361 kts 266°
2026-05-08 20:51 48.89679 2.63787 15661 ft 363 kts 266°
2026-05-08 20:52 48.89519 2.59944 16327 ft 366 kts 266°
2026-05-08 20:52 48.89082 2.56134 16960 ft 368 kts 253°
2026-05-08 20:52 48.88316 2.52405 17611 ft 371 kts 253°
2026-05-08 20:52 48.87534 2.48664 18252 ft 373 kts 252°
2026-05-08 20:53 48.86751 2.44940 18788 ft 376 kts 253°
2026-05-08 20:53 48.85955 2.41172 19270 ft 380 kts 253°
2026-05-08 20:53 48.85150 2.37366 19748 ft 384 kts 253°
2026-05-08 20:53 48.84325 2.33482 20216 ft 388 kts 253°
2026-05-08 20:54 48.83478 2.29514 20696 ft 392 kts 253°
2026-05-08 20:54 48.82651 2.25644 21149 ft 396 kts 253°
2026-05-08 20:54 48.81845 2.21861 21573 ft 400 kts 253°
2026-05-08 20:54 48.81044 2.18094 21782 ft 400 kts 253°
2026-05-08 20:55 48.80190 2.14081 22144 ft 406 kts 253°
2026-05-08 20:55 48.79313 2.09978 22568 ft 410 kts 253°
2026-05-08 20:55 48.78432 2.05874 22995 ft 414 kts 253°
2026-05-08 20:55 48.77590 2.01976 23392 ft 418 kts 253°
2026-05-08 20:56 48.76679 1.97777 23781 ft 422 kts 253°
2026-05-08 20:56 48.75757 1.93532 24149 ft 424 kts 253°
2026-05-08 20:56 48.74834 1.89276 24533 ft 426 kts 253°
2026-05-08 20:56 48.73906 1.84995 24910 ft 428 kts 253°
2026-05-08 20:57 48.72975 1.80697 25293 ft 430 kts 253°
2026-05-08 20:57 48.72042 1.76393 25666 ft 432 kts 253°
2026-05-08 20:57 48.71098 1.72054 26053 ft 434 kts 252°
2026-05-08 20:57 48.70150 1.67712 26420 ft 436 kts 252°
2026-05-08 20:58 48.69191 1.63344 26806 ft 438 kts 252°
2026-05-08 20:58 48.68229 1.58966 27026 ft 443 kts 252°
2026-05-08 20:58 48.67250 1.54515 27072 ft 452 kts 252°
2026-05-08 20:58 48.66307 1.50230 27080 ft 460 kts 252°
2026-05-08 20:59 48.65296 1.45650 27070 ft 468 kts 252°
2026-05-08 20:59 48.64252 1.40941 27068 ft 476 kts 252°
2026-05-08 20:59 48.63191 1.36173 27071 ft 483 kts 252°
2026-05-08 20:59 48.62109 1.31317 27066 ft 490 kts 252°
2026-05-08 21:00 48.61015 1.26431 27371 ft 488 kts 251°
2026-05-08 21:00 48.59967 1.21758 27951 ft 460 kts 251°
2026-05-08 21:00 48.58956 1.17251 27628 ft 450 kts 251°
2026-05-08 21:00 48.57964 1.12824 27156 ft 442 kts 251°
2026-05-08 21:01 48.56978 1.08436 27041 ft 440 kts 251°
2026-05-08 21:01 48.55994 1.04074 27068 ft 440 kts 251°
2026-05-08 21:01 48.55005 0.99695 27062 ft 439 kts 251°
2026-05-08 21:01 48.54023 0.95335 27075 ft 439 kts 251°
2026-05-08 21:02 48.53038 0.90969 27071 ft 440 kts 251°
2026-05-08 21:02 48.52045 0.86598 27069 ft 439 kts 251°
2026-05-08 21:02 48.51051 0.82249 27066 ft 440 kts 250°
2026-05-08 21:02 48.50052 0.77885 27060 ft 440 kts 250°
2026-05-08 21:03 48.49052 0.73526 27064 ft 441 kts 250°
2026-05-08 21:03 48.48051 0.69166 27068 ft 440 kts 250°
2026-05-08 21:03 48.47049 0.64793 27047 ft 441 kts 250°
2026-05-08 21:03 48.46049 0.60438 27058 ft 441 kts 250°
2026-05-08 21:04 48.45044 0.56078 27048 ft 440 kts 250°
2026-05-08 21:04 48.44050 0.51773 27064 ft 441 kts 250°
2026-05-08 21:04 48.43027 0.47354 27051 ft 442 kts 250°
2026-05-08 21:04 48.42012 0.42981 27061 ft 442 kts 250°
2026-05-08 21:05 48.40996 0.38617 27046 ft 443 kts 249°
2026-05-08 21:05 48.39984 0.34285 27042 ft 444 kts 249°
2026-05-08 21:05 48.38962 0.29909 27039 ft 444 kts 249°
2026-05-08 21:05 48.37935 0.25530 27047 ft 444 kts 249°
2026-05-08 21:06 48.36907 0.21150 27049 ft 444 kts 249°
2026-05-08 21:06 48.35894 0.16834 27045 ft 444 kts 249°
2026-05-08 21:06 48.34863 0.12446 27048 ft 444 kts 249°
2026-05-08 21:06 48.33835 0.08083 27056 ft 444 kts 249°
2026-05-08 21:07 48.32804 0.03715 27040 ft 444 kts 249°
2026-05-08 21:07 48.31768 -0.00667 27047 ft 444 kts 249°
2026-05-08 21:07 48.30733 -0.05039 27039 ft 444 kts 248°
2026-05-08 21:07 48.29696 -0.09402 27041 ft 444 kts 248°
2026-05-08 21:08 48.28655 -0.13772 27040 ft 444 kts 248°
2026-05-08 21:08 48.27611 -0.18130 27040 ft 444 kts 247°
2026-05-08 21:08 48.26309 -0.22298 27041 ft 441 kts 238°
2026-05-08 21:08 48.24574 -0.26088 27040 ft 439 kts 228°
2026-05-08 21:09 48.22475 -0.29375 27041 ft 436 kts 219°
2026-05-08 21:09 48.20152 -0.32299 27034 ft 436 kts 217°
2026-05-08 21:09 48.17829 -0.35203 27031 ft 436 kts 218°
2026-05-08 21:09 48.15496 -0.38125 27032 ft 436 kts 218°
2026-05-08 21:10 48.13204 -0.40998 27027 ft 436 kts 218°
2026-05-08 21:10 48.10873 -0.43915 27028 ft 436 kts 218°
2026-05-08 21:10 48.08550 -0.46819 27028 ft 436 kts 218°
2026-05-08 21:10 48.06216 -0.49730 27028 ft 436 kts 218°
2026-05-08 21:11 48.03897 -0.52618 27029 ft 436 kts 217°
2026-05-08 21:11 48.01566 -0.55516 27028 ft 436 kts 217°
2026-05-08 21:11 47.99232 -0.58418 26838 ft 436 kts 217°
2026-05-08 21:11 47.96890 -0.61324 25584 ft 445 kts 217°
2026-05-08 21:12 47.94506 -0.64272 24889 ft 440 kts 217°
2026-05-08 21:12 47.92162 -0.67171 24245 ft 435 kts 217°
2026-05-08 21:12 47.89842 -0.70040 23556 ft 431 kts 217°
2026-05-08 21:12 47.87544 -0.72878 22834 ft 426 kts 217°
2026-05-08 21:13 47.85307 -0.75637 22237 ft 420 kts 217°
2026-05-08 21:13 47.83070 -0.78394 21631 ft 414 kts 217°
2026-05-08 21:13 47.80862 -0.81115 21052 ft 408 kts 218°
2026-05-08 21:13 47.78686 -0.83788 20491 ft 402 kts 217°
2026-05-08 21:14 47.76571 -0.86380 19978 ft 397 kts 217°
2026-05-08 21:14 47.74452 -0.88978 19470 ft 391 kts 217°
2026-05-08 21:14 47.72374 -0.91526 18978 ft 386 kts 218°
2026-05-08 21:14 47.70314 -0.94044 18497 ft 382 kts 218°
2026-05-08 21:15 47.68274 -0.96530 17989 ft 377 kts 218°
2026-05-08 21:15 47.66263 -0.98976 17491 ft 372 kts 218°
2026-05-08 21:15 47.64274 -1.01388 17015 ft 367 kts 218°
2026-05-08 21:15 47.62316 -1.03759 16524 ft 363 kts 218°
2026-05-08 21:16 47.60404 -1.06070 16051 ft 360 kts 217°
2026-05-08 21:16 47.58464 -1.08411 15555 ft 358 kts 217°
2026-05-08 21:16 47.56549 -1.10725 15056 ft 356 kts 217°
2026-05-08 21:16 47.54635 -1.13066 14584 ft 360 kts 218°
2026-05-08 21:17 47.52716 -1.15471 14128 ft 361 kts 219°
2026-05-08 21:17 47.50809 -1.17894 13645 ft 359 kts 219°
2026-05-08 21:17 47.48923 -1.20304 13157 ft 358 kts 219°
2026-05-08 21:17 47.47074 -1.22658 12707 ft 356 kts 219°
2026-05-08 21:18 47.45198 -1.25034 12254 ft 354 kts 219°
2026-05-08 21:18 47.43324 -1.27396 11722 ft 352 kts 219°
2026-05-08 21:18 47.41481 -1.29714 10816 ft 359 kts 219°
2026-05-08 21:18 47.39567 -1.32109 10445 ft 350 kts 219°
2026-05-08 21:19 47.37750 -1.34379 10316 ft 334 kts 219°
2026-05-08 21:19 47.36017 -1.36539 10190 ft 320 kts 218°
2026-05-08 21:19 47.34341 -1.38627 10080 ft 308 kts 218°
2026-05-08 21:19 47.32738 -1.40625 9943 ft 296 kts 218°
2026-05-08 21:20 47.31190 -1.42553 9815 ft 287 kts 218°
2026-05-08 21:20 47.29680 -1.44433 9674 ft 284 kts 218°
2026-05-08 21:20 47.28176 -1.46307 9552 ft 283 kts 218°
2026-05-08 21:20 47.26689 -1.48161 9432 ft 283 kts 218°
2026-05-08 21:21 47.25195 -1.50020 9231 ft 282 kts 218°
2026-05-08 21:21 47.23700 -1.51873 9018 ft 281 kts 218°
2026-05-08 21:21 47.22208 -1.53721 8804 ft 280 kts 218°
2026-05-08 21:21 47.20719 -1.55564 8575 ft 279 kts 218°
2026-05-08 21:22 47.19253 -1.57379 8381 ft 278 kts 218°
2026-05-08 21:22 47.17777 -1.59206 8167 ft 277 kts 218°
2026-05-08 21:22 47.16297 -1.61036 7962 ft 277 kts 218°
2026-05-08 21:22 47.14926 -1.63018 7739 ft 278 kts 229°
2026-05-08 21:23 47.13740 -1.65259 7523 ft 278 kts 230°
2026-05-08 21:23 47.12558 -1.67503 7322 ft 277 kts 230°
2026-05-08 21:23 47.11377 -1.69743 7107 ft 277 kts 230°
2026-05-08 21:23 47.10196 -1.71972 6843 ft 277 kts 229°
2026-05-08 21:24 47.08978 -1.74204 6320 ft 281 kts 228°
2026-05-08 21:24 47.07750 -1.76410 5935 ft 277 kts 228°
2026-05-08 21:24 47.06934 -1.77865 5649 ft 276 kts 227°
2026-05-08 21:24 47.05701 -1.80059 5004 ft 278 kts 227°
2026-05-08 21:25 47.04511 -1.82185 4757 ft 260 kts 227°
2026-05-08 21:25 47.03405 -1.84175 4620 ft 241 kts 227°
2026-05-08 21:25 47.02384 -1.86015 4521 ft 228 kts 227°
2026-05-08 21:25 47.01357 -1.87686 4270 ft 214 kts 210°
2026-05-08 21:26 47.00015 -1.88247 3967 ft 198 kts 172°
2026-05-08 21:26 46.98775 -1.87647 3780 ft 182 kts 145°
2026-05-08 21:26 46.97881 -1.86419 3547 ft 177 kts 131°
2026-05-08 21:26 46.97060 -1.85048 3327 ft 176 kts 129°
2026-05-08 21:27 46.96300 -1.83665 3159 ft 175 kts 127°
2026-05-08 21:27 46.95591 -1.82240 3065 ft 175 kts 124°
2026-05-08 21:27 46.95094 -1.80622 2993 ft 175 kts 104°
2026-05-08 21:27 46.95023 -1.78915 2999 ft 160 kts 86°
2026-05-08 21:28 46.95320 -1.77408 2986 ft 151 kts 69°
2026-05-08 21:28 46.95890 -1.76165 3003 ft 145 kts 53°
2026-05-08 21:28 46.96660 -1.75232 2998 ft 145 kts 37°
2026-05-08 21:28 46.97555 -1.74542 2998 ft 145 kts 33°
2026-05-08 21:29 46.98450 -1.73866 2998 ft 145 kts 33°
2026-05-08 21:29 46.99347 -1.73188 3000 ft 145 kts 33°
2026-05-08 21:29 47.00237 -1.72515 2990 ft 144 kts 33°
2026-05-08 21:29 47.01128 -1.71841 2882 ft 144 kts 33°
2026-05-08 21:30 47.02019 -1.71167 2726 ft 144 kts 33°
2026-05-08 21:30 47.02906 -1.70495 2550 ft 143 kts 33°
2026-05-08 21:30 47.03781 -1.69833 2367 ft 141 kts 33°
2026-05-08 21:30 47.04655 -1.69172 2182 ft 140 kts 33°
2026-05-08 21:31 47.05524 -1.68513 1999 ft 140 kts 33°
2026-05-08 21:31 47.06389 -1.67857 1815 ft 139 kts 33°
2026-05-08 21:31 47.07248 -1.67206 1627 ft 139 kts 33°
2026-05-08 21:31 47.08101 -1.66559 1442 ft 138 kts 33°
2026-05-08 21:32 47.08951 -1.65914 1261 ft 137 kts 32°
2026-05-08 21:32 47.09798 -1.65271 1073 ft 137 kts 32°
2026-05-08 21:32 47.10642 -1.64626 873 ft 137 kts 31°
2026-05-08 21:32 47.11475 -1.64002 699 ft 136 kts 28°
2026-05-08 21:33 47.12304 -1.63358 524 ft 134 kts 27°
2026-05-08 21:33 47.13145 -1.62730 330 ft 135 kts 27°
2026-05-08 21:33 47.13956 -1.62109 190 ft 133 kts 27°
2026-05-08 21:33 47.14750 -1.61496 104 ft 117 kts 27°
2026-05-08 21:34 47.15522 -1.60899 487 ft 133 kts 28°
2026-05-08 21:34 47.16411 -1.60354 1205 ft 147 kts 21°
2026-05-08 21:34 47.17525 -1.60066 1831 ft 179 kts
2026-05-08 21:34 47.18793 -1.60568 2634 ft 203 kts 331°
2026-05-08 21:35 47.19783 -1.62186 3351 ft 230 kts 296°
2026-05-08 21:35 47.20325 -1.64464 3840 ft 239 kts 281°
2026-05-08 21:35 47.20650 -1.66845 4001 ft 233 kts 280°
2026-05-08 21:35 47.21000 -1.69147 4000 ft 229 kts 281°
2026-05-08 21:36 47.21263 -1.71441 4012 ft 226 kts 266°
2026-05-08 21:36 47.20915 -1.73631 3999 ft 219 kts 238°
2026-05-08 21:36 47.19957 -1.75305 4006 ft 212 kts 211°
2026-05-08 21:36 47.19105 -1.75979 4017 ft 208 kts 198°
2026-05-08 21:37 47.17313 -1.77074 3927 ft 208 kts 198°
2026-05-08 21:37 47.16429 -1.77618 3769 ft 208 kts 199°
2026-05-08 21:37 47.15097 -1.78440 3507 ft 208 kts 198°
2026-05-08 21:37 47.13758 -1.79267 3264 ft 208 kts 198°
2026-05-08 21:38 47.12440 -1.80082 3061 ft 207 kts 198°
2026-05-08 21:38 47.11075 -1.80922 2999 ft 215 kts 198°
2026-05-08 21:38 47.09686 -1.81778 2999 ft 217 kts 199°
2026-05-08 21:38 47.08323 -1.82622 3000 ft 217 kts 199°
2026-05-08 21:39 47.06919 -1.83494 3000 ft 218 kts 199°
2026-05-08 21:39 47.05519 -1.84361 3000 ft 218 kts 199°
2026-05-08 21:39 47.04130 -1.85223 3000 ft 218 kts 199°
2026-05-08 21:39 47.02734 -1.86090 3002 ft 218 kts 199°
2026-05-08 21:40 47.01395 -1.87106 2992 ft 222 kts 216°
2026-05-08 21:40 47.00365 -1.88811 3002 ft 225 kts 225°
2026-05-08 21:40 46.99112 -1.90006 2996 ft 214 kts 186°
2026-05-08 21:41 46.96950 -1.88021 3001 ft 203 kts 105°
2026-05-08 21:41 46.96649 -1.85959 3001 ft 205 kts 105°
2026-05-08 21:41 46.96168 -1.83998 3001 ft 205 kts 115°
2026-05-08 21:41 46.95534 -1.82228 2994 ft 193 kts 117°
2026-05-08 21:42 46.95148 -1.80386 3008 ft 181 kts 98°
2026-05-08 21:42 46.95199 -1.78650 3022 ft 165 kts 82°
2026-05-08 21:42 46.95572 -1.77166 3011 ft 148 kts 66°
2026-05-08 21:42 46.96164 -1.75970 2993 ft 144 kts 52°
2026-05-08 21:43 46.96929 -1.75040 2996 ft 144 kts 38°
2026-05-08 21:43 46.97815 -1.74343 2997 ft 145 kts 33°
2026-05-08 21:43 46.98706 -1.73671 2999 ft 145 kts 33°
2026-05-08 21:43 46.99585 -1.73007 3000 ft 144 kts 33°
2026-05-08 21:44 47.00477 -1.72333 2969 ft 144 kts 32°
2026-05-08 21:44 47.01382 -1.71649 2822 ft 146 kts 32°
2026-05-08 21:44 47.02278 -1.70971 2661 ft 144 kts 32°
2026-05-08 21:44 47.03137 -1.70321 2485 ft 142 kts 32°
2026-05-08 21:45 47.04033 -1.69643 2297 ft 141 kts 32°
2026-05-08 21:45 47.04906 -1.68981 2109 ft 141 kts 32°
2026-05-08 21:45 47.05771 -1.68326 1927 ft 140 kts 32°
2026-05-08 21:45 47.06636 -1.67670 1735 ft 140 kts 32°
2026-05-08 21:46 47.07496 -1.67017 1556 ft 139 kts 32°
2026-05-08 21:46 47.08356 -1.66365 1363 ft 138 kts 32°
2026-05-08 21:46 47.09211 -1.65716 1184 ft 139 kts 31°
2026-05-08 21:46 47.10067 -1.65066 1004 ft 138 kts 31°
2026-05-08 21:47 47.10917 -1.64421 813 ft 136 kts 30°
2026-05-08 21:47 47.11760 -1.63781 665 ft 136 kts 27°
2026-05-08 21:47 47.12595 -1.63146 476 ft 135 kts 26°
2026-05-08 21:47 47.13427 -1.62513 297 ft 134 kts 26°
2026-05-08 21:48 47.14258 -1.61881 115 ft 134 kts 26°
2026-05-08 21:48 47.14992 -1.61322 97 ft 96 kts 28°
2026-05-08 21:48 47.15450 -1.60973 101 ft 51 kts 27°
2026-05-08 21:48 47.15716 -1.60771 100 ft 37 kts 28°
2026-05-08 21:49 47.15837 -1.60632 99 ft 14 kts 75°
2026-05-08 21:49 47.15810 -1.60523 100 ft 7 kts 125°
2026-05-08 21:49 47.15805 -1.60515 99 ft 0 kts 132°
2026-05-08 21:49 47.15796 -1.60501 99 ft 0 kts 133°